[[{"header":{"parameterUnit":"m.s-1","parameterCategory":1,"la1":30.2991,"la2":30.254,"lo1":-89.0895,"lo2":-89.0444,"dy":0.0017,"dx":0.0017,"nx":28,"ny":28,"refTime":"2023-10-15T09:00:00:Z","depth":0,"parameterNumber":2,"parameterNumberName":"U-component_of_WINDS"},"data":[0,0,0,0,0,0,0,0,0,0,0,0,0,0,0,0,0,0,0,0,0,0,0,0,0,0,0,0,0,0,0,0,0,0,0,0,0,0,0,0,0,0,0,0,0,0,0,0,0,0,0,0,0,0,0,0,0,0,2.4604,2.4604,0,2.462,2.462,2.4621,2.461,2.4609,2.4609,2.4608,2.4624,2.4625,2.4625,0,0,0,0,0,0,0,0,0,0,0,0,0,2.4564,2.4565,2.4604,2.4604,2.4605,2.462,2.462,2.4621,2.461,2.4609,2.4609,2.4608,2.4623,2.4624,2.4625,0,0,0,0,0,0,0,0,0,0,0,0,0,2.4581,2.4565,2.4604,2.4601,2.4601,2.462,2.462,2.4621,2.461,2.4609,2.4608,2.4608,2.4623,2.4624,2.4626,2.4648,0,0,2.463,2.463,0,0,0,0,0,0,0,0,2.458,2.4582,2.4601,2.4601,2.4601,2.4612,2.4612,2.463,2.461,2.4606,2.4608,2.4607,2.462,2.4622,2.4626,2.4649,2.465,2.463,2.4631,2.4631,2.4631,0,0,0,0,0,0,0,2.4579,2.4581,2.461,2.4602,2.4602,2.4599,2.46,2.4615,2.4617,2.4607,2.4606,2.4608,2.462,2.4625,2.4627,2.465,2.463,2.4631,2.4632,2.4632,2.4693,2.4694,0,0,0,0,0,0,2.4578,2.4581,2.461,2.4611,2.4588,2.46,2.4602,2.4609,2.4617,2.4618,2.4609,2.4608,2.4623,2.4625,2.4627,2.4655,2.4631,2.4632,2.4633,2.4692,2.4693,2.4694,0,0,0,0,0,0,2.4577,2.458,2.4609,2.4596,2.4599,2.4602,2.461,2.461,2.4615,2.4619,2.4619,2.4613,2.4623,2.4625,2.4643,2.4655,2.4633,2.4634,2.4691,2.4692,2.4694,2.471,0,0,0,0,0,0,2.4576,2.458,2.4589,2.4596,2.46,2.4625,2.4611,2.4611,2.4618,2.4616,2.4623,2.4624,2.4623,2.4642,2.4645,2.4657,2.4635,2.469,2.4692,2.4693,2.4708,2.4711,2.4714,0,0,0,0,0,2.4574,2.4592,2.4589,2.4593,2.4611,2.4626,2.4628,2.4627,2.4618,2.4627,2.463,2.4623,2.4654,2.4644,2.4647,2.4659,2.4689,2.4691,2.4693,2.4707,2.4711,2.4714,0,0,0,0,0,0,2.4586,2.4593,2.459,2.4611,2.4618,2.4624,2.4635,2.4631,2.464,2.4639,2.4636,2.4638,2.4657,2.466,2.4649,2.4682,2.467,2.4673,2.4679,2.4683,2.4686,2.4685,2.4636,0,0,0,0,0,2.4591,2.4603,2.4609,2.4627,2.463,2.4632,2.4639,2.4637,2.4644,2.4647,2.4651,2.4658,2.4669,2.4676,2.4687,2.4709,2.471,2.4719,2.4722,2.4725,2.4727,2.4739,2.4743,2.47,2.47,2.47,0,0,2.4602,2.4607,2.4615,2.4629,2.4634,2.4647,2.4635,2.4648,2.4658,2.4649,2.4667,2.467,2.4677,2.4698,2.4707,2.4701,2.4739,2.4727,2.4729,2.473,2.4742,2.4746,2.4749,2.4701,2.4701,2.4701,0,0,2.4627,2.4632,2.4648,2.4654,2.4663,2.4664,2.4668,2.4675,2.4677,2.4694,2.4689,2.47,2.4719,2.4725,2.473,2.4759,2.4754,2.4763,2.4778,2.479,2.4793,2.4796,2.4807,2.4811,2.4765,2.4765,2.4765,0,2.4639,2.4657,2.4656,2.4671,2.4678,2.4671,2.4687,2.4693,2.4705,2.4709,2.4703,2.4727,2.4732,2.4754,2.4761,2.4765,2.477,2.4761,2.4793,2.4796,2.4799,2.4809,2.4813,2.4766,2.4766,2.4766,2.4766,0,2.4672,2.4685,2.4697,2.4708,2.4717,2.4732,2.4733,2.4741,2.4739,2.4741,2.476,2.4765,2.4777,2.4782,2.478,2.4804,2.48,2.4793,2.4781,2.4804,2.4813,2.4817,2.4767,2.4767,2.4767,2.4766,0,0,2.4704,2.4716,2.472,2.4726,2.4736,2.4746,2.4761,2.4773,2.478,2.4788,2.4801,2.4818,2.4812,2.4818,2.4817,2.4828,2.4851,2.482,2.482,2.4825,2.4878,2.4882,2.4887,2.4847,2.4848,2.4849,2.4877,0,2.473,2.4756,2.4757,2.4781,2.4793,2.4788,2.4802,2.4809,2.4811,2.4822,2.4825,2.4837,2.4828,2.4832,2.4843,2.4846,2.4861,2.4844,2.4859,2.4859,2.4857,2.4892,2.4897,2.4923,2.4881,2.4881,2.4882,0,2.4763,2.4774,2.48,2.4808,2.4813,2.4825,2.4837,2.4847,2.4856,2.4857,2.4864,2.4862,2.4877,2.4865,2.4886,2.4874,2.4881,2.4883,2.4884,2.4885,2.4872,2.4893,2.4931,2.4935,2.4887,2.4887,2.4886,0,2.4785,2.4805,2.4823,2.4828,2.4838,2.4847,2.4852,2.4859,2.4867,2.4877,2.4882,2.4893,2.49,2.4909,2.4909,2.49,2.4931,2.4918,2.4932,2.4932,2.4938,2.4938,2.4977,2.4943,2.4943,2.4943,2.4943,0,2.4813,2.4829,2.4833,2.4844,2.4862,2.4862,2.488,2.4884,2.4891,2.4903,2.4899,2.491,2.4911,2.4922,2.4923,2.494,2.4943,2.4944,2.4944,2.4945,2.4944,2.4948,2.4946,2.4944,2.4943,2.4943,2.4943,0,2.484,2.4843,2.4862,2.4871,2.4874,2.4886,2.4894,2.4904,2.4907,2.4922,2.4926,2.493,2.4943,2.4945,2.496,2.4961,2.4982,2.498,2.4979,2.4979,2.4992,2.4991,2.5035,2.5041,2.5003,2.5004,2.5004,0,2.4858,2.487,2.4881,2.4888,2.4894,2.4907,2.4914,2.4915,2.4924,2.4935,2.4944,2.4957,2.4968,2.499,2.4994,2.5006,2.5004,2.5019,2.5005,2.5006,2.5004,2.5003,2.5004,2.5021,2.5021,2.5022,2.5022,0,2.489,2.4891,2.4902,2.4915,2.4925,2.4934,2.4943,2.495,2.4952,2.4962,2.4976,2.4984,2.5,2.5013,2.5025,2.503,2.5026,2.5026,2.503,2.503,2.5029,2.503,2.4986,2.5025,2.5025,2.5024,2.5024,2.5024,2.4912,2.4923,2.4933,2.4946,2.4953,2.4962,2.4973,2.4977,2.4989,2.5002,2.5002,2.5018,2.5026,2.5042,2.5048,2.506,2.5055,2.506,2.5061,2.5063,2.5064,2.5028,2.5062,2.5062,2.5062,2.5062,2.5062,0,2.4944,2.495,2.4962,2.4976,2.4986,2.4983,2.4993,2.5002,2.5015,2.5024,2.5035,2.5051,2.5064,2.507,2.5082,2.5091,2.509,2.5094,2.5093,2.5094,2.5068,2.5063,2.5095,2.5095,2.5095,2.5095,2.5095,2.5095,2.4962,2.498,2.4983,2.5005,2.501,2.5026,2.5032,2.504,2.5047,2.5066,2.5077,2.508,2.5088,2.5101,2.5113,2.5114,2.5119,2.5124,2.5125,2.51,2.5096,2.5093,2.5089,2.5125,2.5126,2.5151,2.5151,2.5151]},{"header":{"parameterUnit":"m.s-1","parameterCategory":1,"la1":30.2991,"la2":30.254,"lo1":-89.0895,"lo2":-89.0444,"dy":0.0017,"dx":0.0017,"nx":28,"ny":28,"refTime":"2023-10-15T09:00:00:Z","depth":0,"parameterNumber":3,"parameterNumberName":"V-component_of_WINDS"},"data":[0,0,0,0,0,0,0,0,0,0,0,0,0,0,0,0,0,0,0,0,0,0,0,0,0,0,0,0,0,0,0,0,0,0,0,0,0,0,0,0,0,0,0,0,0,0,0,0,0,0,0,0,0,0,0,0,0,0,-6.0121,-6.0122,0,-6.0238,-6.024,-6.0241,-6.0241,-6.0239,-6.0238,-6.0236,-6.035,-6.0354,-6.0359,0,0,0,0,0,0,0,0,0,0,0,0,0,-5.9894,-5.9898,-6.0121,-6.0123,-6.0124,-6.0238,-6.024,-6.0241,-6.0241,-6.0239,-6.0237,-6.0235,-6.0349,-6.0354,-6.0359,0,0,0,0,0,0,0,0,0,0,0,0,0,-6.0,-5.9899,-6.0121,-6.0138,-6.014,-6.0238,-6.024,-6.0242,-6.0241,-6.0239,-6.0237,-6.0235,-6.0347,-6.0353,-6.036,-6.0446,0,0,-6.038,-6.0383,0,0,0,0,0,0,0,0,-5.9994,-6.0008,-6.0134,-6.0137,-6.014,-6.0223,-6.0201,-6.031,-6.0242,-6.0203,-6.0236,-6.0233,-6.0309,-6.0319,-6.0346,-6.0452,-6.0457,-6.0381,-6.0385,-6.0388,-6.039,0,0,0,0,0,0,0,-5.9986,-6.0003,-6.0167,-6.0136,-6.0139,-6.0138,-6.0151,-6.0222,-6.0267,-6.0206,-6.0206,-6.022,-6.031,-6.0339,-6.0348,-6.0458,-6.0381,-6.0387,-6.0391,-6.0393,-6.0645,-6.0648,0,0,0,0,0,0,-5.9976,-5.9997,-6.0163,-6.0171,-6.006,-6.0144,-6.0158,-6.0198,-6.0266,-6.0275,-6.0222,-6.022,-6.0329,-6.034,-6.0352,-6.046,-6.0388,-6.0394,-6.0398,-6.0642,-6.0646,-6.0649,0,0,0,0,0,0,-5.9971,-5.9991,-6.0159,-6.0084,-6.0105,-6.0151,-6.0195,-6.0202,-6.0231,-6.0279,-6.0286,-6.0244,-6.0328,-6.0343,-6.0424,-6.0464,-6.0397,-6.0403,-6.0639,-6.0643,-6.0647,-6.0676,0,0,0,0,0,0,-5.9965,-5.9989,-6.0023,-6.0085,-6.0109,-6.023,-6.0198,-6.0206,-6.0243,-6.0241,-6.0301,-6.0308,-6.0327,-6.0414,-6.0431,-6.0472,-6.0408,-6.0636,-6.0641,-6.0646,-6.0672,-6.068,-6.0688,0,0,0,0,0,-5.9957,-6.0024,-6.0025,-6.0045,-6.0153,-6.0232,-6.0246,-6.0268,-6.0246,-6.028,-6.0312,-6.0306,-6.0457,-6.0423,-6.0441,-6.0485,-6.0633,-6.064,-6.0646,-6.0668,-6.0679,-6.0688,0,0,0,0,0,0,-5.9963,-6.0033,-6.0034,-6.0124,-6.0173,-6.0232,-6.0275,-6.0278,-6.0332,-6.0327,-6.035,-6.0364,-6.0446,-6.0473,-6.0434,-6.0574,-6.0543,-6.0553,-6.0553,-6.0564,-6.0572,-6.0564,-6.0414,0,0,0,0,0,-5.9976,-6.0036,-6.0092,-6.0166,-6.0191,-6.0229,-6.0264,-6.0278,-6.0328,-6.0348,-6.0385,-6.0433,-6.0491,-6.0529,-6.0585,-6.0676,-6.069,-6.0715,-6.0724,-6.073,-6.0738,-6.0791,-6.0804,-6.0668,-6.0668,-6.0668,0,0,-6.0,-6.0046,-6.0082,-6.0169,-6.0208,-6.0269,-6.0246,-6.0311,-6.0357,-6.0357,-6.0437,-6.0467,-6.0521,-6.0609,-6.0649,-6.0634,-6.0779,-6.0738,-6.0743,-6.0748,-6.0799,-6.0812,-6.0823,-6.0673,-6.0672,-6.0671,0,0,-6.0078,-6.0118,-6.0186,-6.0227,-6.0288,-6.0313,-6.033,-6.039,-6.041,-6.0492,-6.0495,-6.0548,-6.0648,-6.0688,-6.0721,-6.0819,-6.0817,-6.0836,-6.0879,-6.093,-6.0941,-6.0951,-6.0987,-6.1,-6.0844,-6.0845,-6.0845,0,-6.0101,-6.0195,-6.0219,-6.0286,-6.0325,-6.0331,-6.04,-6.0438,-6.0513,-6.0539,-6.0523,-6.0651,-6.0688,-6.0786,-6.081,-6.0836,-6.0856,-6.0829,-6.0938,-6.0948,-6.0957,-6.0992,-6.1006,-6.0847,-6.0846,-6.0846,-6.0846,0,-6.0221,-6.0286,-6.0333,-6.041,-6.0454,-6.0521,-6.0555,-6.0597,-6.0607,-6.0634,-6.0719,-6.0764,-6.0832,-6.0856,-6.0864,-6.0956,-6.0946,-6.0933,-6.0902,-6.0972,-6.1005,-6.1019,-6.085,-6.0849,-6.0848,-6.0848,0,0,-6.0303,-6.0396,-6.0413,-6.0449,-6.0519,-6.0569,-6.0637,-6.0706,-6.0742,-6.0794,-6.0852,-6.0938,-6.0929,-6.0967,-6.098,-6.1025,-6.1102,-6.1007,-6.1009,-6.1025,-6.1209,-6.1219,-6.1234,-6.1102,-6.1104,-6.1106,-6.1205,0,-6.0389,-6.0513,-6.0539,-6.0645,-6.0707,-6.0716,-6.0775,-6.0824,-6.0853,-6.0908,-6.0938,-6.1001,-6.0982,-6.1005,-6.105,-6.1083,-6.114,-6.1076,-6.1156,-6.1159,-6.1143,-6.1251,-6.1261,-6.1352,-6.1218,-6.122,-6.1222,0,-6.0506,-6.0565,-6.0679,-6.0744,-6.077,-6.0824,-6.089,-6.0944,-6.1,-6.1017,-6.1062,-6.1072,-6.1144,-6.111,-6.1209,-6.1165,-6.12,-6.1221,-6.1225,-6.1234,-6.1195,-6.1264,-6.1381,-6.1395,-6.1242,-6.1241,-6.1239,0,-6.0557,-6.0665,-6.0748,-6.0778,-6.0855,-6.0893,-6.0926,-6.0981,-6.1022,-6.1079,-6.1106,-6.117,-6.1206,-6.1255,-6.1283,-6.1255,-6.1381,-6.1348,-6.1398,-6.1397,-6.1423,-6.1422,-6.1549,-6.1444,-6.1444,-6.1443,-6.1443,0,-6.0651,-6.072,-6.0772,-6.0823,-6.0902,-6.0931,-6.1008,-6.1041,-6.109,-6.1148,-6.1158,-6.1211,-6.1244,-6.1302,-6.1323,-6.1404,-6.1419,-6.1435,-6.144,-6.1435,-6.1433,-6.1458,-6.1453,-6.1447,-6.1446,-6.1446,-6.1445,0,-6.0721,-6.0758,-6.085,-6.0917,-6.0936,-6.0991,-6.1048,-6.1098,-6.1128,-6.12,-6.1219,-6.1265,-6.1335,-6.1367,-6.1452,-6.1467,-6.1559,-6.1558,-6.154,-6.1543,-6.1591,-6.1587,-6.174,-6.1762,-6.1641,-6.1642,-6.1643,0,-6.0778,-6.0833,-6.0908,-6.0948,-6.0984,-6.1048,-6.1092,-6.1123,-6.1167,-6.1238,-6.1279,-6.135,-6.1408,-6.1519,-6.1559,-6.1625,-6.1627,-6.1677,-6.1637,-6.1631,-6.163,-6.1627,-6.1634,-6.1683,-6.1685,-6.1686,-6.1686,0,-6.0878,-6.0895,-6.0957,-6.1028,-6.108,-6.1135,-6.119,-6.1223,-6.1263,-6.1312,-6.1385,-6.143,-6.152,-6.159,-6.1659,-6.1693,-6.1697,-6.1699,-6.1714,-6.171,-6.1698,-6.1707,-6.1561,-6.1695,-6.1694,-6.1694,-6.1693,-6.1693,-6.0945,-6.0995,-6.1057,-6.1127,-6.1172,-6.1224,-6.1276,-6.1314,-6.1376,-6.1453,-6.1467,-6.1545,-6.1603,-6.1697,-6.1734,-6.1795,-6.1783,-6.1805,-6.181,-6.1815,-6.1819,-6.1688,-6.1807,-6.1807,-6.1807,-6.1806,-6.1806,0,-6.1046,-6.1088,-6.1152,-6.1231,-6.1286,-6.1288,-6.135,-6.1396,-6.1465,-6.152,-6.1578,-6.1664,-6.1733,-6.178,-6.1851,-6.1891,-6.1895,-6.1908,-6.1906,-6.1914,-6.1825,-6.1805,-6.1904,-6.1904,-6.1904,-6.1904,-6.1904,-6.1904,-6.1106,-6.1192,-6.1217,-6.1326,-6.1366,-6.1445,-6.1481,-6.1529,-6.1573,-6.1669,-6.1728,-6.1759,-6.1811,-6.1886,-6.1951,-6.1963,-6.1989,-6.2003,-6.2015,-6.193,-6.192,-6.191,-6.1892,-6.2008,-6.2008,-6.21,-6.2101,-6.2101]}]]